Martinsburg, WV

1:11 AM EST on December 12, 2019 (GMT -0500)
Eastern W Va Regional-Shepherd

Weather History for KMRB - October, 2019

Change the Weather History Date:

Sunday, October 6, 2019

  Actual Average Record
Temperature  
Mean Temperature 64 °F 57 °F  
Max Temperature 68 °F 69 °F 98 °F (1941)
Min Temperature 59 °F 46 °F 28 °F (1965)
Degree Days  
Heating Degree Days 2 8  
Month to date heating degree days 17 45  
Since 1 July heating degree days 29 136  
Cooling Degree Days 0 1  
Month to date cooling degree days 37 6  
Year to date cooling degree days 1280 891  
Growing Degree Days 14 (Base 50)    
Moisture  
Dew Point 58 °F    
Average Humidity 86    
Maximum Humidity 100    
Minimum Humidity 64    
Precipitation  
Precipitation 0.26 in 0.10 in 1.49 in (1957)
Month to date precipitation 0.26 0.59  
Year to date precipitation 35.16 30.40  
Sea Level Pressure  
Sea Level Pressure 30.22 in    
Wind  
Wind Speed 5 mph ()    
Max Wind Speed 13 mph    
Max Gust Speed 18 mph    
Visibility 8.5 miles    
Events Rain    
T = Trace of Precipitation, MM = Missing Value Source: Averaged Metar Reports

Daily Weather History Graph

Daily Weather History Graph

Search for Another Location

Airport or City:

Astronomy

Oct. 06, 2019 Rise Set
Actual Time 7:12 AM EDT 6:46 PM EDT
Civil Twilight 6:45 AM EDT 7:13 PM EDT
Nautical Twilight 6:14 AM EDT 7:44 PM EDT
Astronomical Twilight 5:43 AM EDT 8:15 PM EDT
Moon 3:22 PM EDT (10/6) 12:11 AM EDT (10/6)
Length of Visible Light 12h 27m
Length of Day
11h 34m
First Quarter, 59% of the Moon is Illuminated
Oct 6
First Quarter
Oct 13
Full
Oct 21
Last Quarter
Oct 27
New
Nov 4
First Quarter

Hourly Weather History & Observations

Time (EDT) Temp. Dew Point Humidity Pressure Visibility Wind Dir Wind Speed Gust Speed Precip Events Conditions
12:19 AM 59.0 °F 48.0 °F 67% 30.26 in 10.0 mi SSE 9.2 mph 17.3 mph N/A   Overcast
12:53 AM 60.1 °F 48.9 °F 67% 30.25 in 10.0 mi SSE 8.1 mph - N/A   Overcast
1:53 AM 59.0 °F 51.1 °F 75% 30.25 in 10.0 mi SSE 9.2 mph - N/A   Overcast
2:53 AM 59.0 °F 53.1 °F 81% 30.24 in 10.0 mi SSE 9.2 mph - N/A   Overcast
3:53 AM 59.0 °F 54.0 °F 83% 30.23 in 10.0 mi SSE 9.2 mph - N/A   Overcast
4:17 AM 59.0 °F 54.0 °F 83% 30.23 in 10.0 mi South 6.9 mph - N/A   Overcast
4:53 AM 59.0 °F 54.0 °F 83% 30.23 in 10.0 mi SSE 5.8 mph - N/A   Overcast
5:53 AM 59.0 °F 54.0 °F 83% 30.22 in 10.0 mi SE 6.9 mph - N/A   Overcast
6:53 AM 59.0 °F 54.0 °F 83% 30.23 in 10.0 mi SSE 8.1 mph - N/A   Overcast
7:19 AM 60.1 °F 55.0 °F 83% 30.22 in 10.0 mi SSE 8.1 mph - N/A   Overcast
7:53 AM 60.1 °F 55.9 °F 86% 30.23 in 5.0 mi SSE 8.1 mph - N/A   Overcast
8:21 AM 60.1 °F 55.9 °F 86% 30.24 in 10.0 mi SSE 4.6 mph - N/A   Overcast
8:46 AM 61.0 °F 57.0 °F 87% 30.23 in 10.0 mi SSE 4.6 mph - N/A   Overcast
8:53 AM 61.0 °F 57.0 °F 87% 30.24 in 10.0 mi SSE 4.6 mph - N/A   Overcast
9:53 AM 63.0 °F 57.0 °F 81% 30.24 in 10.0 mi South 5.8 mph - N/A   Overcast
10:53 AM 66.0 °F 57.9 °F 75% 30.22 in 7.0 mi SSE 6.9 mph - N/A   Overcast
11:03 AM 64.0 °F 59.0 °F 84% 30.23 in 1.8 mi South 5.8 mph - 0.04 in   Haze
11:16 AM 63.0 °F 59.0 °F 87% 30.23 in 3.0 mi South 6.9 mph - 0.07 in Rain Light Rain
11:53 AM 64.0 °F 61.0 °F 90% 30.23 in 10.0 mi South 4.6 mph - 0.07 in   Overcast
12:12 PM 63.0 °F 61.0 °F 93% 30.23 in 4.0 mi Calm Calm - 0.01 in Rain Light Rain
12:17 PM 63.0 °F 61.0 °F 93% 30.23 in 1.8 mi SE 3.5 mph - 0.04 in Rain Heavy Rain
12:30 PM 63.0 °F 61.0 °F 93% 30.23 in 0.8 mi Calm Calm - 0.16 in Rain Rain
12:40 PM 63.0 °F 61.0 °F 93% 30.23 in 2.0 mi Calm Calm - 0.19 in Rain Light Rain
12:48 PM 62.6 °F 60.8 °F 94% 30.23 in 10.0 mi Calm Calm - 0.19 in   Overcast
12:53 PM 63.0 °F 62.1 °F 97% 30.22 in 10.0 mi Calm Calm - 0.19 in   Overcast
1:53 PM 64.9 °F 63.0 °F 93% 30.21 in 10.0 mi Calm Calm - 0.00 in   Overcast
2:53 PM 66.9 °F 64.0 °F 90% 30.19 in 10.0 mi SSE 3.5 mph - N/A   Overcast
3:53 PM 66.9 °F 63.0 °F 87% 30.18 in 10.0 mi SSE 5.8 mph - N/A   Mostly Cloudy
4:53 PM 66.9 °F 63.0 °F 87% 30.17 in 10.0 mi SSE 6.9 mph - 0.00 in   Overcast
5:53 PM 66.9 °F 62.1 °F 84% 30.17 in 10.0 mi SSE 3.5 mph - 0.00 in   Overcast
6:53 PM 66.0 °F 62.1 °F 87% 30.17 in 10.0 mi SSE 3.5 mph - N/A   Partly Cloudy
7:53 PM 64.9 °F 61.0 °F 87% 30.17 in 10.0 mi SSE 3.5 mph - N/A   Partly Cloudy
8:53 PM 64.9 °F 61.0 °F 87% 30.17 in 10.0 mi South 4.6 mph - N/A   Overcast
9:53 PM 64.0 °F 61.0 °F 90% 30.18 in 10.0 mi Calm Calm - N/A   Mostly Cloudy
10:53 PM 63.0 °F 61.0 °F 93% 30.18 in 10.0 mi Calm Calm - N/A   Overcast
11:53 PM 64.0 °F 61.0 °F 90% 30.16 in 10.0 mi SSE 3.5 mph - N/A   Partly Cloudy